Tracking 22459 objects as of 3-Mar-2021
HD Live streaming from Space Station
objects crossing your sky now

BREEZE-M DEB

Track BREEZE-M DEB now!
10-day predictions


NORAD ID: 34260
Int'l Code: 2006-006CB
Perigee: 552.4 km
Apogee: 14,283.2 km
Inclination: 52.0 °
Period: 268.6 minutes
Semi major axis: 13788 km
RCS: 0.063 m2 (small)
Launch date: February 28, 2006
Source: Commonwealth of Independent States (former USSR) (CIS)
Launch site: TYURATAM MISSILE AND SPACE COMPLEX (TTMTR)

Note: This is SATELLITE DEBRIS
aabbcc
Your satellite tracking list
Your tracking list is empty




NASA's NSSDC Master Catalog

Two Line Element Set (TLE):
1 34260U 06006CB  20266.16179697  .00000875  00000-0  20595-2 0  9992
2 34260  52.0494 300.5164 4978992 232.5640  70.9693  5.36185095246705
Source of the keplerian elements: AFSPC